Location: Brantley
(31.5822°N, 86.2569°W)
Time: 03:44:50
(UTC+00:00)

Courier 1B Rocket - Pass Details

Date: 16 February 2026
Orbit: 920 x 1201 km, 28.2° (Epoch: 7 March)

Event Time Altitude Azimuth Distance (km) Brightness Sun altitude
Rises 00:14:44 0° 224° (SW) 3,538 8.9 -9.7°
Reaches altitude 10° 00:17:40 10° 213° (SSW) 2,602 7.9 -10.4°
Maximum altitude 00:22:51 28° 156° (SSE) 1,682 6.1 -11.4°
Enters shadow 00:27:16 14° 105° (ESE) 2,421 6.5 -12.4°
Drops below altitude 10° 00:28:12 10° 100° (E) 2,691 - -12.6°
Sets 00:31:17 0° 89° (E) 3,680 - -13.2°
